User: anonymous
Location: Nantong Television Tower
(32.0188°N, 120.8512°E)
Time: 15:52:48
(UTC+08:00)
Language:

Vanguard 3 - Orbit

View from above orbital plane
View from above orbital plane
View from above satellite
View from above satellite

Ground track
Ground track

The orbit data is extracted from the following two-line orbital elements,

1 00020U 59007A   14203.45376843  .00000172  00000-0  69700-4 0  5355
2 00020 033.3438 300.8176 1674717 352.8168 005.0963 11.53998782981126
Epoch (UTC): 22 July 2014 10:53:25
Eccentricity: 0.1674717
inclination: 33.3438°
perigee height: 508 km
apogee height: 3279 km
right ascension of ascending node: 300.8176°
argument of perigee: 352.8168°
revolutions per day: 11.53998782
mean anomaly at epoch: 5.0963°
orbit number at epoch: 98112

The dashed part of the orbit path shows where the satellite is in the earth's shadow,  

DLR